Home   Weather   Speyer   Past weeks

Flag for Germany Past Weather in Speyer, Rhineland-Palatinate, Germany — Yesterday and Last 2 Weeks

Now
59 °F

Scattered clouds.


Feels Like: 59 °F
Forecast: 37 / 66 °F
Wind: 5 mph from North

Location: Mannheim City

Current Time: Apr 29, 2017 at 3:37:28 pm

Latest Report: Apr 29, 2017 at 2:50 pm


Visibility: N/A

Pressure: 30.04 "Hg

Humidity: 36%

Dew Point: 32 °F

Location of SpeyerLocation

Past Weather in Speyer — Graph

°F

Speyer Temperature Yesterday

Maximum temperature yesterday: 57 °F (at 1:20 pm)
Minimum temperature yesterday: 39 °F (at 6:20 am)
Average temperature yesterday: 50 °F

High & Low Weather Summary for the Past Weeks

 TemperatureHumidityPressure
High63 °F (Apr 24, 6:50 pm)100% (Apr 24, 5:20 am)30.60 "Hg (Apr 24, 5:20 am)
Low28 °F (Apr 20, 5:50 am)28% (Apr 21, 12:50 pm)29.71 "Hg (Apr 25, 5:50 am)
Average49 °F51%30.13 "Hg
* Reported Apr 19 9:20 am — Apr 29 2:20 pm, Speyer, Weather by CustomWeather, © 2017

Note: Actual official high and low records may vary slightly from our data, if they occured in-between our weather recording intervals... More about our weather records

Advertising

Speyer Weather History for the Previous 24 Hours

Scroll right to see more
 ConditionsComfort  
Time TempWeatherWind HumidityBarometerVisibility
2:20 pm
Sat, Apr 29
55 °FPartly sunny.6 mph41%30.04 "HgN/A
1:50 pm57 °FScattered clouds.5 mph39%30.04 "HgN/A
12:50 pm54 °FPartly sunny.5 mph51%30.07 "HgN/A
12:20 pm55 °FPartly sunny.8 mph47%30.07 "HgN/A
11:50 am55 °FPassing clouds.5 mph47%30.07 "HgN/A
11:20 am52 °FPassing clouds.3 mph58%30.07 "HgN/A
10:50 am52 °FPartly sunny.5 mph58%30.07 "HgN/A
9:20 am50 °FBroken clouds.3 mph67%30.07 "HgN/A
8:50 am50 °FPartly sunny.1 mph67%30.07 "HgN/A
8:20 am46 °FPartly sunny.2 mph76%30.07 "HgN/A
7:50 am46 °FSunny.3 mph76%30.07 "Hg10 mi
9:20 pm
Fri, Apr 28
52 °FClear.8 mph50%30.01 "Hg10 mi
8:50 pm52 °FClear.9 mph47%30.01 "Hg10 mi
8:20 pm52 °FPassing clouds.8 mph44%29.98 "HgN/A
7:50 pm54 °FSunny.10 mph38%29.98 "Hg10 mi
7:20 pm54 °FSunny.9 mph41%29.98 "Hg10 mi
6:50 pm54 °FPassing clouds.10 mph38%29.98 "HgN/A
6:20 pm57 °FPassing clouds.12 mph33%29.95 "HgN/A
5:50 pm55 °FSunny.12 mph33%29.95 "Hg10 mi
5:20 pm55 °FSunny.3 mph33%29.95 "Hg10 mi
4:50 pm54 °FPassing clouds.9 mph35%29.95 "HgN/A
4:20 pm55 °FPassing clouds.13 mph36%29.95 "HgN/A
3:50 pm55 °FSunny.9 mph31%29.95 "Hg10 mi
3:20 pm54 °FPassing clouds.8 mph33%29.95 "HgN/A
Weather by CustomWeather, © 2017

See weather overviewHow to use our weather pages